Station Historical Data
Daily Summary for February 14, 2012 Units:  English    Metric   Both
« Previous Day
Next Day »
Daily Weekly Monthly Yearly Custom
  High: Low: Average:
Temperature: 46.3 °F 35.8 °F 41.2 °F
Dew Point: 44.4 °F 32.8 °F 39.6 °F
Humidity: 97% 88% 94%
Wind Speed: 16.0mph 0.0mph 3.9mph
Wind Gust: 17.0mph - -
Wind- - South
Pressure: 30.13 in 29.95 in -
Precipitation: 0.05 in    
Historical Graphs
 
 
Tabular Data for February 14, 2012
Time Temperature Dew Point Pressure Wind Wind Speed Wind Gust Humidity Rainfall Rate (Hourly) Conditions
00:00 36.0 °F 32.8 °F 30.03 in SSE 5.0 mph 10.0 mph 88% 0.00 in
00:02 36.0 °F 32.8 °F 30.03 in SE 7.0 mph 10.0 mph 88% 0.00 in
00:07 36.0 °F 32.8 °F 30.04 in SSE 5.0 mph 11.0 mph 88% 0.00 in
00:12 36.0 °F 32.8 °F 30.04 in SSE 6.0 mph 10.0 mph 88% 0.00 in
00:17 36.0 °F 33.1 °F 30.04 in SSE 7.0 mph 9.0 mph 89% 0.00 in
00:22 36.0 °F 33.1 °F 30.03 in SE 9.0 mph 12.0 mph 89% 0.05 in
00:27 35.9 °F 33.0 °F 30.03 in South 11.0 mph 13.0 mph 89% 0.05 in
00:32 35.9 °F 33.3 °F 30.02 in SE 6.0 mph 10.0 mph 90% 0.05 in
00:37 35.8 °F 33.2 °F 30.02 in ESE 10.0 mph 10.0 mph 90% 0.00 in
00:42 35.8 °F 33.2 °F 30.01 in SE 6.0 mph 9.0 mph 90% 0.00 in
00:47 35.8 °F 33.2 °F 30.01 in SE 7.0 mph 11.0 mph 90% 0.00 in
00:52 35.9 °F 33.3 °F 30.01 in SE 4.0 mph 10.0 mph 90% 0.00 in
00:57 35.9 °F 33.3 °F 30.01 in SE 7.0 mph 9.0 mph 90% 0.00 in
01:02 36.0 °F 33.4 °F 30.02 in SSE 7.0 mph 10.0 mph 90% 0.00 in
01:07 36.1 °F 33.5 °F 30.02 in SE 6.0 mph 9.0 mph 90% 0.00 in
01:12 36.2 °F 33.6 °F 30.02 in SSE 7.0 mph 9.0 mph 90% 0.00 in
01:17 36.3 °F 33.7 °F 30.02 in SE 6.0 mph 9.0 mph 90% 0.00 in
01:22 36.3 °F 33.7 °F 30.02 in SSE 5.0 mph 11.0 mph 90% 0.00 in
01:27 36.4 °F 33.8 °F 30.02 in SSE 8.0 mph 10.0 mph 90% 0.00 in
01:32 36.5 °F 33.8 °F 30.01 in SE 6.0 mph 10.0 mph 90% 0.00 in
01:38 36.5 °F 33.8 °F 30.00 in SE 10.0 mph 10.0 mph 90% 0.00 in
01:43 36.5 °F 33.8 °F 29.99 in SE 8.0 mph 11.0 mph 90% 0.00 in
01:48 36.7 °F 34.0 °F 29.99 in SE 8.0 mph 13.0 mph 90% 0.00 in
01:53 36.7 °F 34.0 °F 29.99 in SE 16.0 mph 16.0 mph 90% 0.00 in
01:58 36.8 °F 34.2 °F 29.98 in SE 11.0 mph 15.0 mph 90% 0.00 in
02:03 36.8 °F 34.2 °F 29.98 in ESE 9.0 mph 17.0 mph 90% 0.00 in
02:08 36.8 °F 34.2 °F 29.98 in SE 12.0 mph 17.0 mph 90% 0.00 in
02:13 36.8 °F 34.2 °F 29.98 in SSE 9.0 mph 13.0 mph 90% 0.00 in
02:18 36.9 °F 34.2 °F 29.98 in SE 9.0 mph 13.0 mph 90% 0.00 in
02:23 36.9 °F 34.2 °F 29.98 in SSE 9.0 mph 10.0 mph 90% 0.00 in
02:28 36.9 °F 34.5 °F 29.98 in SSE 6.0 mph 14.0 mph 91% 0.00 in
02:33 36.9 °F 34.5 °F 29.98 in ESE 13.0 mph 15.0 mph 91% 0.00 in
02:38 36.9 °F 34.5 °F 29.97 in SSE 10.0 mph 10.0 mph 91% 0.00 in
02:43 36.9 °F 34.8 °F 29.97 in SE 9.0 mph 11.0 mph 92% 0.00 in
02:48 36.9 °F 34.8 °F 29.97 in ESE 10.0 mph 12.0 mph 92% 0.00 in
02:53 36.8 °F 35.0 °F 29.97 in SE 9.0 mph 13.0 mph 93% 0.00 in
02:58 36.8 °F 35.0 °F 29.96 in SE 10.0 mph 11.0 mph 93% 0.00 in
03:03 36.7 °F 34.9 °F 29.96 in SE 6.0 mph 10.0 mph 93% 0.00 in
03:08 36.8 °F 35.0 °F 29.96 in SE 8.0 mph 9.0 mph 93% 0.00 in
03:13 36.8 °F 35.2 °F 29.96 in SSE 6.0 mph 9.0 mph 94% 0.00 in
03:19 36.7 °F 35.1 °F 29.96 in SE 7.0 mph 10.0 mph 94% 0.00 in
03:24 36.8 °F 35.2 °F 29.96 in SE 8.0 mph 10.0 mph 94% 0.24 in
03:29 36.8 °F 35.2 °F 29.96 in SSE 4.0 mph 9.0 mph 94% 0.07 in
03:34 36.9 °F 35.3 °F 29.96 in SE 6.0 mph 9.0 mph 94% 0.05 in
03:39 37.0 °F 35.7 °F 29.96 in SSE 9.0 mph 10.0 mph 95% 0.00 in
03:44 37.0 °F 35.7 °F 29.96 in SSE 4.0 mph 9.0 mph 95% 0.00 in
03:49 37.1 °F 35.8 °F 29.95 in SE 6.0 mph 6.0 mph 95% 0.00 in
03:54 37.1 °F 35.8 °F 29.95 in SSE 7.0 mph 13.0 mph 95% 0.00 in
03:59 37.2 °F 35.9 °F 29.95 in South 6.0 mph 8.0 mph 95% 0.00 in
04:04 37.2 °F 35.6 °F 29.95 in SE 5.0 mph 10.0 mph 94% 0.00 in
04:09 37.3 °F 35.7 °F 29.95 in ESE 6.0 mph 9.0 mph 94% 0.00 in
04:14 37.3 °F 35.7 °F 29.95 in SE 8.0 mph 9.0 mph 94% 0.00 in
04:19 37.4 °F 35.8 °F 29.95 in SE 4.0 mph 9.0 mph 94% 0.00 in
04:24 37.4 °F 35.8 °F 29.95 in SE 5.0 mph 8.0 mph 94% 0.00 in
04:29 37.4 °F 35.8 °F 29.95 in SSE 8.0 mph 9.0 mph 94% 0.00 in
04:34 37.5 °F 36.2 °F 29.95 in SSE 6.0 mph 9.0 mph 95% 0.00 in
04:39 37.5 °F 36.2 °F 29.95 in SE 8.0 mph 12.0 mph 95% 0.00 in
04:44 37.5 °F 36.2 °F 29.96 in SE 6.0 mph 7.0 mph 95% 0.00 in
04:49 37.5 °F 36.2 °F 29.96 in SE 7.0 mph 9.0 mph 95% 0.00 in
04:54 37.5 °F 36.2 °F 29.96 in South 9.0 mph 10.0 mph 95% 0.00 in
04:59 37.6 °F 36.3 °F 29.96 in SSW 3.0 mph 8.0 mph 95% 0.00 in
05:04 37.6 °F 36.3 °F 29.95 in SE 7.0 mph 7.0 mph 95% 0.00 in
05:09 37.6 °F 36.3 °F 29.95 in SE 7.0 mph 8.0 mph 95% 0.00 in
05:14 37.6 °F 36.3 °F 29.96 in SE 4.0 mph 6.0 mph 95% 0.00 in
05:19 37.6 °F 36.3 °F 29.96 in SSE 7.0 mph 7.0 mph 95% 0.00 in
05:24 37.6 °F 36.3 °F 29.95 in SE 6.0 mph 7.0 mph 95% 0.00 in
05:29 37.6 °F 36.3 °F 29.95 in SSE 4.0 mph 7.0 mph 95% 0.00 in
05:34 37.6 °F 36.3 °F 29.96 in SE 5.0 mph 6.0 mph 95% 0.00 in
05:39 37.7 °F 36.4 °F 29.95 in South 4.0 mph 9.0 mph 95% 0.00 in
05:45 37.7 °F 36.4 °F 29.96 in SE 4.0 mph 8.0 mph 95% 0.00 in
05:50 37.7 °F 36.4 °F 29.96 in SSE 3.0 mph 6.0 mph 95% 0.00 in
05:55 37.7 °F 36.4 °F 29.96 in SE 6.0 mph 7.0 mph 95% 0.00 in
06:00 37.8 °F 36.5 °F 29.96 in SSE 7.0 mph 9.0 mph 95% 0.00 in
06:05 37.8 °F 36.5 °F 29.96 in SSE 6.0 mph 9.0 mph 95% 0.00 in
06:10 37.8 °F 36.5 °F 29.96 in SSE 4.0 mph 6.0 mph 95% 0.00 in
06:15 37.8 °F 36.5 °F 29.96 in SSE 4.0 mph 7.0 mph 95% 0.00 in
06:20 37.8 °F 36.5 °F 29.96 in SSE 6.0 mph 7.0 mph 95% 0.00 in
06:25 37.8 °F 36.5 °F 29.96 in SE 4.0 mph 7.0 mph 95% 0.00 in
06:30 37.8 °F 36.5 °F 29.96 in SSE 5.0 mph 7.0 mph 95% 0.00 in
06:35 37.8 °F 36.5 °F 29.96 in SSE 5.0 mph 6.0 mph 95% 0.00 in
06:40 37.8 °F 36.5 °F 29.96 in SE 5.0 mph 5.0 mph 95% 0.00 in
06:45 37.8 °F 36.8 °F 29.96 in SE 5.0 mph 7.0 mph 96% 0.00 in
06:46 37.8 °F 36.8 °F 29.96 in SE 6.0 mph 7.0 mph 96% 0.00 in
06:51 37.9 °F 36.9 °F 29.96 in SE 4.0 mph 5.0 mph 96% 0.00 in
06:56 37.9 °F 36.9 °F 29.96 in SE 6.0 mph 6.0 mph 96% 0.00 in
07:01 37.9 °F 36.9 °F 29.97 in SSE 6.0 mph 6.0 mph 96% 0.00 in
07:06 37.9 °F 36.9 °F 29.97 in South 6.0 mph 9.0 mph 96% 0.00 in
07:11 37.9 °F 36.9 °F 29.97 in SSE 3.0 mph 7.0 mph 96% 0.00 in
07:16 38.0 °F 37.0 °F 29.97 in SSW 3.0 mph 6.0 mph 96% 0.00 in
07:21 37.9 °F 36.9 °F 29.97 in SE 3.0 mph 5.0 mph 96% 0.00 in
07:26 38.0 °F 37.0 °F 29.97 in SSE 4.0 mph 5.0 mph 96% 0.00 in
07:32 38.0 °F 37.0 °F 29.97 in SSE 2.0 mph 6.0 mph 96% 0.00 in
07:37 38.1 °F 37.1 °F 29.97 in ESE 5.0 mph 5.0 mph 96% 0.00 in
07:42 38.1 °F 37.1 °F 29.97 in SSE 5.0 mph 6.0 mph 96% 0.00 in
07:47 38.1 °F 37.1 °F 29.97 in SSE 3.0 mph 5.0 mph 96% 0.00 in
07:52 38.1 °F 37.1 °F 29.97 in SSE 4.0 mph 6.0 mph 96% 0.00 in
07:57 38.1 °F 37.1 °F 29.98 in SE 3.0 mph 6.0 mph 96% 0.00 in
08:02 38.2 °F 37.2 °F 29.98 in SSE 3.0 mph 4.0 mph 96% 0.00 in
08:07 38.3 °F 37.3 °F 29.98 in SSE 4.0 mph 5.0 mph 96% 0.00 in
08:12 38.4 °F 37.4 °F 29.99 in SSE 3.0 mph 5.0 mph 96% 0.00 in
08:17 38.4 °F 37.4 °F 29.99 in SSE 4.0 mph 5.0 mph 96% 0.00 in
08:22 38.5 °F 37.5 °F 29.99 in SE 3.0 mph 5.0 mph 96% 0.00 in
08:27 38.6 °F 37.6 °F 29.99 in SSE 4.0 mph 5.0 mph 96% 0.00 in
08:32 38.6 °F 37.6 °F 29.99 in SSE 2.0 mph 5.0 mph 96% 0.00 in
08:37 38.7 °F 37.7 °F 29.99 in SE 6.0 mph 6.0 mph 96% 0.00 in
08:42 38.8 °F 37.8 °F 30.00 in South 4.0 mph 6.0 mph 96% 0.00 in
08:47 38.9 °F 37.9 °F 29.99 in SE 3.0 mph 7.0 mph 96% 0.00 in
08:52 39.0 °F 38.0 °F 30.00 in SE 3.0 mph 5.0 mph 96% 0.00 in
08:57 39.1 °F 38.1 °F 30.00 in SSE 4.0 mph 6.0 mph 96% 0.00 in
09:02 39.2 °F 38.2 °F 30.00 in South 3.0 mph 5.0 mph 96% 0.00 in
09:07 39.3 °F 38.3 °F 30.00 in SSE 3.0 mph 6.0 mph 96% 0.00 in
09:12 39.4 °F 38.4 °F 30.00 in SE 6.0 mph 6.0 mph 96% 0.00 in
09:17 39.5 °F 38.5 °F 30.00 in South 5.0 mph 8.0 mph 96% 0.00 in
09:22 39.6 °F 38.6 °F 30.00 in SSE 5.0 mph 8.0 mph 96% 0.00 in
09:27 39.7 °F 38.7 °F 30.01 in SSE 4.0 mph 7.0 mph 96% 0.00 in
09:32 39.7 °F 38.9 °F 30.01 in SSE 5.0 mph 6.0 mph 97% 0.00 in
09:38 39.8 °F 38.8 °F 30.01 in SE 5.0 mph 6.0 mph 96% 0.00 in
09:43 40.0 °F 39.2 °F 30.01 in SE 2.0 mph 7.0 mph 97% 0.00 in
09:48 40.0 °F 39.2 °F 30.01 in SSE 5.0 mph 7.0 mph 97% 0.00 in
09:53 40.1 °F 39.3 °F 30.01 in SSE 6.0 mph 6.0 mph 97% 0.00 in
09:58 40.3 °F 39.5 °F 30.01 in SE 2.0 mph 6.0 mph 97% 0.00 in
10:03 40.3 °F 39.5 °F 30.01 in SSW 2.0 mph 5.0 mph 97% 0.00 in
10:08 40.5 °F 39.7 °F 30.01 in SSW 4.0 mph 5.0 mph 97% 0.00 in
10:13 40.7 °F 39.9 °F 30.01 in SSW 4.0 mph 4.0 mph 97% 0.00 in
10:18 40.8 °F 40.0 °F 30.01 in SSW 2.0 mph 3.0 mph 97% 0.00 in
10:23 40.9 °F 40.1 °F 30.01 in SSE 3.0 mph 5.0 mph 97% 0.00 in
10:28 40.9 °F 40.1 °F 30.01 in South 4.0 mph 4.0 mph 97% 0.00 in
10:33 41.0 °F 40.2 °F 30.01 in SE 3.0 mph 4.0 mph 97% 0.00 in
10:38 41.2 °F 40.4 °F 30.02 in SSW 2.0 mph 5.0 mph 97% 0.00 in
10:43 41.3 °F 40.5 °F 30.02 in SW 2.0 mph 4.0 mph 97% 0.00 in
10:48 41.5 °F 40.7 °F 30.02 in SSW 3.0 mph 7.0 mph 97% 0.00 in
10:53 41.7 °F 40.9 °F 30.02 in South 6.0 mph 6.0 mph 97% 0.00 in
10:58 41.8 °F 41.0 °F 30.02 in South 4.0 mph 7.0 mph 97% 0.00 in
11:03 41.9 °F 41.1 °F 30.02 in SSW 4.0 mph 7.0 mph 97% 0.00 in
11:08 42.0 °F 41.2 °F 30.02 in South 4.0 mph 5.0 mph 97% 0.00 in
11:13 42.1 °F 41.3 °F 30.02 in South 3.0 mph 7.0 mph 97% 0.00 in
11:18 42.2 °F 41.4 °F 30.02 in SSW 3.0 mph 6.0 mph 97% 0.00 in
11:23 42.4 °F 41.6 °F 30.02 in SSE 5.0 mph 5.0 mph 97% 0.00 in
11:28 42.5 °F 41.7 °F 30.02 in South 4.0 mph 5.0 mph 97% 0.00 in
11:33 42.6 °F 41.8 °F 30.02 in South 1.0 mph 5.0 mph 97% 0.00 in
11:38 42.8 °F 42.0 °F 30.02 in South 4.0 mph 6.0 mph 97% 0.00 in
11:43 42.8 °F 42.0 °F 30.01 in SE 2.0 mph 5.0 mph 97% 0.00 in
11:48 42.7 °F 41.9 °F 30.01 in SW 3.0 mph 6.0 mph 97% 0.00 in
11:53 42.8 °F 42.0 °F 30.01 in SSE 6.0 mph 7.0 mph 97% 0.00 in
11:58 42.9 °F 41.8 °F 30.01 in South 5.0 mph 6.0 mph 96% 0.00 in
12:03 43.0 °F 41.9 °F 30.01 in SSW 3.0 mph 5.0 mph 96% 0.00 in
12:08 43.2 °F 42.4 °F 30.01 in SSW 2.0 mph 5.0 mph 97% 0.00 in
12:13 43.3 °F 42.5 °F 30.01 in South 3.0 mph 4.0 mph 97% 0.00 in
12:18 43.5 °F 42.7 °F 30.01 in SSE 4.0 mph 5.0 mph 97% 0.00 in
12:23 43.5 °F 42.7 °F 30.01 in SW 5.0 mph 6.0 mph 97% 0.00 in
12:28 43.4 °F 42.3 °F 30.01 in SW 1.0 mph 6.0 mph 96% 0.00 in
12:33 43.5 °F 42.4 °F 30.01 in WSW 3.0 mph 5.0 mph 96% 0.00 in
12:38 43.5 °F 42.4 °F 30.01 in WSW 4.0 mph 5.0 mph 96% 0.00 in
12:43 43.5 °F 42.4 °F 30.01 in West 3.0 mph 6.0 mph 96% 0.00 in
12:49 43.6 °F 42.5 °F 30.01 in WSW 4.0 mph 6.0 mph 96% 0.00 in
12:54 43.6 °F 42.5 °F 30.01 in WSW 4.0 mph 6.0 mph 96% 0.00 in
12:59 43.6 °F 42.5 °F 30.00 in SW 6.0 mph 6.0 mph 96% 0.00 in
13:04 43.7 °F 42.6 °F 30.00 in SW 4.0 mph 6.0 mph 96% 0.00 in
13:09 43.8 °F 42.7 °F 30.00 in South 4.0 mph 5.0 mph 96% 0.00 in
13:14 43.9 °F 42.8 °F 30.00 in SSW 4.0 mph 7.0 mph 96% 0.00 in
13:19 43.9 °F 42.8 °F 30.00 in SW 5.0 mph 6.0 mph 96% 0.00 in
13:24 44.0 °F 42.9 °F 30.00 in South 3.0 mph 7.0 mph 96% 0.00 in
13:29 44.2 °F 43.1 °F 30.00 in WSW 4.0 mph 5.0 mph 96% 0.00 in
13:34 44.4 °F 43.3 °F 30.00 in SSW 8.0 mph 8.0 mph 96% 0.00 in
13:39 44.5 °F 43.4 °F 30.00 in WSW 3.0 mph 7.0 mph 96% 0.00 in
13:44 44.5 °F 43.4 °F 29.99 in SW 5.0 mph 6.0 mph 96% 0.00 in
13:49 44.8 °F 43.7 °F 30.00 in WSW 4.0 mph 5.0 mph 96% 0.00 in
13:54 44.9 °F 43.8 °F 29.99 in SW 5.0 mph 7.0 mph 96% 0.00 in
13:59 44.8 °F 43.5 °F 29.99 in SW 5.0 mph 8.0 mph 95% 0.00 in
14:04 44.7 °F 43.4 °F 29.99 in WSW 4.0 mph 6.0 mph 95% 0.00 in
14:09 44.8 °F 43.5 °F 29.99 in WSW 6.0 mph 6.0 mph 95% 0.00 in
14:14 44.7 °F 43.4 °F 30.00 in WSW 4.0 mph 6.0 mph 95% 0.00 in
14:19 44.7 °F 43.4 °F 30.00 in West 2.0 mph 7.0 mph 95% 0.00 in
14:24 44.9 °F 43.6 °F 30.00 in WSW 5.0 mph 6.0 mph 95% 0.00 in
14:30 45.0 °F 43.7 °F 30.00 in WSW 5.0 mph 6.0 mph 95% 0.00 in
14:35 45.0 °F 43.7 °F 30.00 in WSW 3.0 mph 6.0 mph 95% 0.00 in
14:41 45.2 °F 43.9 °F 30.00 in WSW 4.0 mph 7.0 mph 95% 0.00 in
14:46 45.1 °F 43.5 °F 30.00 in WSW 3.0 mph 8.0 mph 94% 0.00 in
14:51 45.1 °F 43.5 °F 30.00 in SW 4.0 mph 6.0 mph 94% 0.00 in
14:56 45.2 °F 43.6 °F 30.00 in SW 4.0 mph 8.0 mph 94% 0.00 in
15:01 45.2 °F 43.6 °F 30.00 in SSW 7.0 mph 7.0 mph 94% 0.00 in
15:06 45.2 °F 43.6 °F 30.00 in SW 3.0 mph 5.0 mph 94% 0.00 in
15:11 45.3 °F 43.7 °F 30.00 in WSW 3.0 mph 5.0 mph 94% 0.00 in
15:16 45.4 °F 43.8 °F 30.00 in SW 2.0 mph 6.0 mph 94% 0.00 in
15:21 45.6 °F 44.0 °F 30.00 in SW 3.0 mph 5.0 mph 94% 0.00 in
15:26 45.7 °F 44.1 °F 30.00 in SW 5.0 mph 7.0 mph 94% 0.00 in
15:31 45.7 °F 43.8 °F 30.00 in SW 5.0 mph 7.0 mph 93% 0.00 in
15:36 45.9 °F 44.0 °F 30.01 in WSW 3.0 mph 6.0 mph 93% 0.00 in
15:41 46.2 °F 44.3 °F 30.01 in SW 4.0 mph 5.0 mph 93% 0.00 in
15:46 46.3 °F 44.4 °F 30.01 in SW 5.0 mph 6.0 mph 93% 0.00 in
15:51 46.2 °F 44.0 °F 30.01 in WSW 6.0 mph 6.0 mph 92% 0.00 in
15:56 46.2 °F 44.3 °F 30.01 in SW 5.0 mph 8.0 mph 93% 0.00 in
16:01 46.1 °F 43.9 °F 30.01 in SW 4.0 mph 6.0 mph 92% 0.00 in
16:06 46.0 °F 44.1 °F 30.02 in SW 2.0 mph 6.0 mph 93% 0.00 in
16:11 46.0 °F 44.1 °F 30.02 in SW 5.0 mph 5.0 mph 93% 0.00 in
16:16 46.0 °F 44.1 °F 30.02 in SSW 1.0 mph 5.0 mph 93% 0.00 in
16:21 46.0 °F 44.1 °F 30.02 in SSW 1.0 mph 5.0 mph 93% 0.00 in
16:26 46.0 °F 44.1 °F 30.02 in SW 4.0 mph 6.0 mph 93% 0.00 in
16:31 46.0 °F 44.1 °F 30.02 in SW 4.0 mph 4.0 mph 93% 0.00 in
16:36 46.0 °F 44.1 °F 30.02 in SW 3.0 mph 5.0 mph 93% 0.00 in
16:41 46.1 °F 44.2 °F 30.02 in SW 4.0 mph 4.0 mph 93% 0.00 in
16:46 46.1 °F 44.2 °F 30.02 in SW 3.0 mph 4.0 mph 93% 0.00 in
16:51 46.1 °F 43.9 °F 30.02 in SW 3.0 mph 5.0 mph 92% 0.00 in
16:56 46.1 °F 44.2 °F 30.02 in SW 4.0 mph 5.0 mph 93% 0.00 in
17:01 46.1 °F 43.9 °F 30.03 in SW 5.0 mph 6.0 mph 92% 0.00 in
17:06 46.1 °F 43.9 °F 30.02 in SW 4.0 mph 6.0 mph 92% 0.00 in
17:11 46.1 °F 43.9 °F 30.03 in WSW 1.0 mph 3.0 mph 92% 0.00 in
17:16 46.2 °F 44.0 °F 30.03 in WSW 2.0 mph 2.0 mph 92% 0.00 in
17:21 46.1 °F 43.9 °F 30.03 in West 1.0 mph 3.0 mph 92% 0.00 in
17:26 46.0 °F 43.8 °F 30.03 in West 2.0 mph 2.0 mph 92% 0.00 in
17:31 46.0 °F 43.8 °F 30.03 in West 1.0 mph 2.0 mph 92% 0.00 in
17:37 45.9 °F 43.4 °F 30.03 in West 2.0 mph 5.0 mph 91% 0.00 in
17:42 45.8 °F 43.3 °F 30.03 in West 2.0 mph 3.0 mph 91% 0.00 in
17:47 45.8 °F 43.6 °F 30.04 in West 1.0 mph 3.0 mph 92% 0.00 in
17:52 45.8 °F 43.6 °F 30.04 in West 1.0 mph 4.0 mph 92% 0.00 in
17:57 45.7 °F 43.5 °F 30.04 in WSW 1.0 mph 2.0 mph 92% 0.00 in
18:02 45.7 °F 43.2 °F 30.04 in WSW 1.0 mph 4.0 mph 91% 0.00 in
18:07 45.6 °F 43.4 °F 30.04 in West 1.0 mph 2.0 mph 92% 0.00 in
18:12 45.4 °F 42.9 °F 30.04 in WNW 4.0 mph 4.0 mph 91% 0.00 in
18:17 45.3 °F 42.8 °F 30.04 in WNW 2.0 mph 4.0 mph 91% 0.00 in
18:22 45.1 °F 42.9 °F 30.05 in WNW 1.0 mph 3.0 mph 92% 0.00 in
18:27 45.0 °F 42.8 °F 30.05 in WNW 1.0 mph 3.0 mph 92% 0.00 in
18:32 44.9 °F 42.7 °F 30.05 in WNW 2.0 mph 3.0 mph 92% 0.00 in
18:37 44.9 °F 42.4 °F 30.05 in WNW 2.0 mph 3.0 mph 91% 0.00 in
18:42 44.8 °F 42.6 °F 30.05 in Calm   1.0 mph 92% 0.00 in
18:47 44.7 °F 42.5 °F 30.05 in Calm   1.0 mph 92% 0.00 in
18:52 44.7 °F 42.5 °F 30.05 in Calm     92% 0.00 in
18:57 44.6 °F 42.4 °F 30.05 in NW 1.0 mph 1.0 mph 92% 0.00 in
19:02 44.5 °F 42.3 °F 30.06 in NNW 1.0 mph 2.0 mph 92% 0.00 in
19:07 44.5 °F 42.3 °F 30.06 in NW 3.0 mph 3.0 mph 92% 0.00 in
19:12 44.5 °F 42.3 °F 30.06 in NNW 3.0 mph 4.0 mph 92% 0.00 in
19:17 44.5 °F 42.3 °F 30.06 in NW 2.0 mph 4.0 mph 92% 0.00 in
19:22 44.4 °F 42.2 °F 30.06 in NW 3.0 mph 3.0 mph 92% 0.00 in
19:27 44.4 °F 42.2 °F 30.06 in NW 2.0 mph 2.0 mph 92% 0.00 in
19:32 44.3 °F 42.1 °F 30.07 in NW 1.0 mph 2.0 mph 92% 0.00 in
19:37 44.2 °F 42.0 °F 30.07 in NW 2.0 mph 3.0 mph 92% 0.00 in
19:42 44.2 °F 42.0 °F 30.07 in NW 1.0 mph 2.0 mph 92% 0.00 in
19:47 44.1 °F 41.9 °F 30.08 in NW 1.0 mph 2.0 mph 92% 0.00 in
19:52 44.0 °F 42.1 °F 30.08 in NW 1.0 mph 2.0 mph 93% 0.00 in
19:57 43.9 °F 41.7 °F 30.08 in NW 1.0 mph 4.0 mph 92% 0.00 in
20:02 43.9 °F 41.7 °F 30.08 in NW 2.0 mph 3.0 mph 92% 0.00 in
20:07 43.8 °F 41.9 °F 30.08 in West 1.0 mph 2.0 mph 93% 0.00 in
20:12 43.7 °F 41.8 °F 30.08 in Calm   1.0 mph 93% 0.00 in
20:17 43.7 °F 41.8 °F 30.08 in WNW 1.0 mph 1.0 mph 93% 0.00 in
20:22 43.6 °F 41.7 °F 30.09 in WNW 1.0 mph 1.0 mph 93% 0.00 in
20:28 43.6 °F 41.7 °F 30.09 in Calm   2.0 mph 93% 0.00 in
20:33 43.6 °F 41.7 °F 30.09 in NW 1.0 mph 2.0 mph 93% 0.00 in
20:38 43.5 °F 41.6 °F 30.09 in NW 2.0 mph 2.0 mph 93% 0.00 in
20:43 43.4 °F 41.5 °F 30.10 in NW 3.0 mph 3.0 mph 93% 0.00 in
20:48 43.4 °F 41.5 °F 30.10 in NNW 1.0 mph 2.0 mph 93% 0.00 in
20:53 43.3 °F 41.4 °F 30.10 in NNW 1.0 mph 2.0 mph 93% 0.00 in
20:58 43.3 °F 41.4 °F 30.10 in North 1.0 mph 1.0 mph 93% 0.00 in
21:03 43.3 °F 41.4 °F 30.09 in NNE 1.0 mph 2.0 mph 93% 0.00 in
21:08 43.2 °F 41.3 °F 30.10 in Calm   1.0 mph 93% 0.00 in
21:13 43.2 °F 41.3 °F 30.10 in North 2.0 mph 3.0 mph 93% 0.00 in
21:18 43.1 °F 41.2 °F 30.10 in North 1.0 mph 1.0 mph 93% 0.00 in
21:23 43.1 °F 41.5 °F 30.10 in North 1.0 mph 1.0 mph 94% 0.00 in
21:28 43.0 °F 41.4 °F 30.11 in North 1.0 mph 1.0 mph 94% 0.00 in
21:33 42.9 °F 41.3 °F 30.11 in Calm     94% 0.00 in
21:38 42.9 °F 41.3 °F 30.11 in Calm     94% 0.00 in
21:43 42.8 °F 41.2 °F 30.11 in Calm     94% 0.00 in
21:48 42.7 °F 41.1 °F 30.11 in North 1.0 mph 1.0 mph 94% 0.00 in
21:53 42.7 °F 41.1 °F 30.11 in Calm   1.0 mph 94% 0.00 in
21:58 42.6 °F 41.0 °F 30.11 in Calm     94% 0.00 in
22:03 42.5 °F 40.9 °F 30.12 in Calm     94% 0.00 in
22:08 42.4 °F 40.8 °F 30.12 in Calm     94% 0.00 in
22:13 42.5 °F 40.9 °F 30.12 in Calm     94% 0.00 in
22:18 42.5 °F 40.9 °F 30.12 in North 1.0 mph 1.0 mph 94% 0.00 in
22:23 42.6 °F 41.0 °F 30.13 in Calm   1.0 mph 94% 0.00 in
22:28 42.7 °F 41.1 °F 30.13 in East 2.0 mph 2.0 mph 94% 0.00 in
22:33 42.6 °F 41.0 °F 30.13 in East 1.0 mph 2.0 mph 94% 0.00 in
22:39 42.6 °F 41.0 °F 30.13 in East 1.0 mph 1.0 mph 94% 0.00 in
22:44 42.6 °F 41.0 °F 30.13 in Calm   1.0 mph 94% 0.00 in
22:49 42.6 °F 41.0 °F 30.12 in East 1.0 mph 1.0 mph 94% 0.00 in
22:54 42.6 °F 41.0 °F 30.12 in East 1.0 mph 1.0 mph 94% 0.00 in
22:59 42.6 °F 41.0 °F 30.12 in Calm   1.0 mph 94% 0.00 in
23:04 42.5 °F 40.9 °F 30.12 in East 2.0 mph 2.0 mph 94% 0.00 in
23:09 42.4 °F 41.1 °F 30.12 in East 2.0 mph 3.0 mph 95% 0.00 in
23:14 42.4 °F 41.1 °F 30.12 in East 2.0 mph 2.0 mph 95% 0.00 in
23:19 42.4 °F 41.1 °F 30.12 in ENE 1.0 mph 2.0 mph 95% 0.00 in
23:24 42.4 °F 41.1 °F 30.12 in East 1.0 mph 2.0 mph 95% 0.00 in
23:29 42.4 °F 41.1 °F 30.12 in Calm   1.0 mph 95% 0.00 in
23:34 42.4 °F 41.1 °F 30.12 in ENE 2.0 mph 2.0 mph 95% 0.00 in
23:39 42.4 °F 41.1 °F 30.13 in Calm   1.0 mph 95% 0.00 in
23:44 42.3 °F 41.0 °F 30.13 in ENE 1.0 mph 2.0 mph 95% 0.00 in
23:49 42.3 °F 41.0 °F 30.13 in ESE 2.0 mph 2.0 mph 95% 0.00 in
23:54 42.3 °F 41.0 °F 30.13 in East 2.0 mph 3.0 mph 95% 0.00 in
23:59 42.3 °F 41.0 °F 30.13 in East 2.0 mph 3.0 mph 95% 0.00 in
Compliments of Weather Underground